This demonstration page uses our WeatherBlox Daily Observations layout. Learn more.

Left ArrowRight Arrow

Hourly Observations for May 24, 2015

Temp ( °F °C ) Dew Point ( °F °C ) Humidity (%) Winds ( mph kmh ) Pressure ( in mb ) Visibility ( mi km ) Precip ( " mm )
12:48 am 00:48 Cloudy 63 17 61 16 94 94 S 5 7 30.03 1017 10 16 0.00 0.00
12:52 am 00:52 Cloudy 63 17.2 60 15.6 90 90 S 7 11 30.02 1017 10 16 0.00 0.00
1:52 am 01:52 Cloudy with Rain 61 16.1 60 15.6 97 97 E 6 9 30.01 1016 3 5 0.07 1.78
2:52 am 02:52 Cloudy with Light Rain 61 16.1 59 15 93 93 E 13 20 29.95 1014 10 16 0.03 0.76
3:52 am 03:52 Cloudy with Rain 60 15.6 59 15 96 96 ENE 9 15 29.92 1013 3 5 0.03 0.76
3:59 am 03:59 Cloudy with Light Rain 60 15.6 59 15 96 96 ENE 7 11 29.94 1014 4 6 0.01 0.25
4:14 am 04:14 Cloudy with Light Rain 61 16 59 15 94 94 ENE 6 9 29.91 1013 5 8 0.00 0.00
4:52 am 04:52 Cloudy 61 16.1 59 15 93 93 E 12 19 29.89 1012 10 16 0.02 0.51
5:52 am 05:52 Cloudy with Light Rain 61 16.1 59 15 93 93 E 12 19 29.88 1012 3 5 0.00 0.03
6:04 am 06:04 Cloudy with Light Rain 61 16 59 15 94 94 E 9 15 29.85 1011 2 3 0.00 0.00
6:26 am 06:26 Cloudy with Light Rain 61 16 59 15 94 94 E 13 20 29.85 1011 2 3 0.00 0.00
6:29 am 06:29 Cloudy with Light Rain 61 16.1 59 15 93 93 E 12 19 29.85 1011 7 11 0.02 0.51
6:33 am 06:33 Cloudy 61 16.1 59 15 93 93 E 12 19 29.85 1011 3 5 0.02 0.51
6:52 am 06:52 Cloudy with Mist and Fog 61 16.1 59 15 93 93 E 10 17 29.86 1011 3 5 0.02 0.51
7:36 am 07:36 Cloudy with Mist and Fog 61 16 59 15 94 94 ESE 13 20 29.85 1011 2 3 0.00 0.00
7:52 am 07:52 Cloudy with Drizzle 61 16.1 60 15.6 97 97 E 10 17 29.87 1011 2 3 0.00 0.03
8:52 am 08:52 Cloudy with Drizzle 61 16.1 60 15.6 97 97 ESE 7 11 29.84 1011 2 3 0.01 0.25
9:17 am 09:17 Cloudy with Mist and Fog 62 16.7 61 16.1 96 96 ESE 9 15 29.80 1009 3 5 0.00 0.03
9:34 am 09:34 Cloudy with Mist and Fog 62 16.7 61 16.1 96 96 SE 8 13 29.80 1009 6 10 0.00 0.03
9:52 am 09:52 Cloudy with Mist and Fog 63 17.2 61 16.1 93 93 SE 7 11 29.82 1010 6 10 0.00 0.03
10:52 am 10:52 Cloudy with Mist and Fog 63 17.2 61 16.1 93 93 SSE 8 13 29.82 1010 5 8 0.00 0.00
11:52 am 11:52 Cloudy with Mist and Fog 64 17.8 62 16.7 93 93 S 6 9 29.82 1010 5 8 0.00 0.00
12:52 pm 12:52 Cloudy with Mist and Fog 65 18.3 62 16.7 90 90 SSE 5 7 29.81 1009 5 8 0.00 0.00
1:22 pm 13:22 Cloudy with Mist and Fog 66 19 63 17 88 88 SE 5 7 29.80 1009 5 8 0.00 0.00
1:52 pm 13:52 Cloudy 67 19.4 62 16.7 84 84 SSE 3 6 29.80 1009 10 16 0.00 0.00
2:52 pm 14:52 Cloudy 68 20 61 16.1 78 78 SSW 3 6 29.79 1009 10 16 0.00 0.00
3:40 pm 15:40 Cloudy 68 20 61 16 78 78 SW 8 13 29.77 1008 10 16 0.00 0.00
3:52 pm 15:52 Cloudy 68 20 62 16.7 81 81 SSW 7 11 29.79 1009 10 16 0.00 0.00
4:52 pm 16:52 Cloudy 69 20.6 61 16.1 76 76 SW 8 13 29.78 1008 10 16 0.00 0.00
5:45 pm 17:45 Cloudy 69 20.6 61 16.1 76 76 SSW 7 11 29.77 1008 10 16 0.00 0.00
5:52 pm 17:52 Cloudy 70 21.1 61 16.1 73 73 SW 6 9 29.78 1008 10 16 0.00 0.00
6:52 pm 18:52 Cloudy 70 21.1 61 16.1 73 73 SW 5 7 29.76 1008 10 16 0.00 0.00
7:52 pm 19:52 Cloudy 69 20.6 61 16.1 76 76 WSW 3 6 29.75 1007 10 16 0.00 0.00
8:31 pm 20:31 Mostly Cloudy 69 20.6 61 16.1 76 76 SSW 3 6 29.74 1007 10 16 0.00 0.00
8:52 pm 20:52 Cloudy 69 20.6 61 16.1 76 76 SSW 7 11 29.75 1007 10 16 0.00 0.00
8:59 pm 20:59 Cloudy 68 20 61 16.1 78 78 SSW 6 9 29.74 1007 10 16 0.00 0.00
9:52 pm 21:52 Cloudy 68 20 61 16.1 78 78 SW 5 7 29.75 1008 10 16 0.00 0.00
10:52 pm 22:52 Cloudy 67 19.4 61 16.1 81 81 SSW 6 9 29.76 1008 10 16 0.00 0.00
11:52 pm 23:52 Mostly Cloudy 66 18.9 61 16.1 84 84 SSW 6 9 29.77 1008 10 16 0.00 0.00

Powered by AerisWeather